| time (UTC) | temp F | wind direction | speed MPH | gust MPH | rain 1hr in | rain 24hr in | rain mn in | humidity % | barometer mb |
| 20260505003847 | 72 | 218 | 1.0 | 1.0 | 0.00 | 0.00 | 0.00 | 45 | 1011.9 |
| 20260505003344 | 73 | 241 | 1.0 | 2.0 | 0.00 | 0.00 | 0.00 | 45 | 1011.9 |
| 20260505002840 | 73 | 173 | 3.0 | 3.0 | 0.00 | 0.00 | 0.00 | 45 | 1011.7 |
| 20260505002337 | 73 | 199 | 2.0 | 2.0 | 0.00 | 0.00 | 0.00 | 44 | 1012.0 |
| 20260505001835 | 74 | 180 | 3.0 | 5.0 | 0.00 | 0.00 | 0.00 | 44 | 1011.9 |
| 20260505001332 | 74 | 187 | 1.0 | 2.0 | 0.00 | 0.00 | 0.00 | 44 | 1011.8 |
| 20260505000829 | 74 | 195 | 3.0 | 5.0 | 0.00 | 0.00 | 0.00 | 44 | 1011.7 |
| 20260505000327 | 74 | 187 | 4.0 | 5.0 | 0.00 | 0.00 | 0.00 | 44 | 1011.8 |
| 20260504235823 | 74 | 193 | 5.0 | 7.0 | 0.00 | 0.00 | 0.00 | 43 | 1011.9 |
| 20260504235320 | 74 | 189 | 3.0 | 5.0 | 0.00 | 0.00 | 0.00 | 43 | 1011.8 |
| 20260504234817 | 74 | 216 | 7.0 | 9.0 | 0.00 | 0.00 | 0.00 | 43 | 1011.7 |
| 20260504234315 | 74 | 226 | 5.0 | 6.0 | 0.00 | 0.00 | 0.00 | 42 | 1011.8 |
| 20260504233811 | 74 | 103 | 5.0 | 8.0 | 0.00 | 0.00 | 0.00 | 42 | 1011.8 |
| 20260504233307 | 75 | 239 | 3.0 | 5.0 | 0.00 | 0.00 | 0.00 | 42 | 1011.7 |
| 20260504232804 | 75 | 177 | 6.0 | 8.0 | 0.00 | 0.00 | 0.00 | 41 | 1011.9 |
| 20260504232301 | 75 | 165 | 7.0 | 8.0 | 0.00 | 0.00 | 0.00 | 41 | 1011.6 |
| 20260504231758 | 75 | 134 | 5.0 | 7.0 | 0.00 | 0.00 | 0.00 | 40 | 1011.4 |
| 20260504231254 | 75 | 162 | 5.0 | 6.0 | 0.00 | 0.00 | 0.00 | 40 | 1011.6 |
| 20260504230750 | 75 | 187 | 6.0 | 7.0 | 0.00 | 0.00 | 0.00 | 40 | 1011.6 |
| 20260504230248 | 76 | 180 | 9.0 | 11.0 | 0.00 | 0.00 | 0.00 | 39 | 1011.7 |
| 20260504225747 | 76 | 207 | 7.0 | 10.0 | 0.00 | 0.00 | 0.00 | 39 | 1011.5 |
| 20260504225243 | 76 | 92 | 5.0 | 7.0 | 0.00 | 0.00 | 0.00 | 39 | 1011.4 |
| 20260504224740 | 76 | 186 | 5.0 | 6.0 | 0.00 | 0.00 | 0.00 | 39 | 1011.6 |
| 20260504224237 | 76 | 282 | 4.0 | 6.0 | 0.00 | 0.00 | 0.00 | 39 | 1011.6 |
| 20260504223733 | 76 | 158 | 7.0 | 9.0 | 0.00 | 0.00 | 0.00 | 38 | 1011.6 |
| 20260504223229 | 76 | 155 | 8.0 | 10.0 | 0.00 | 0.00 | 0.00 | 38 | 1011.8 |
| 20260504222726 | 76 | 144 | 4.0 | 5.0 | 0.00 | 0.00 | 0.00 | 38 | 1011.5 |
| 20260504222223 | 76 | 197 | 10.0 | 13.0 | 0.00 | 0.00 | 0.00 | 38 | 1011.6 |
| 20260504221721 | 76 | 193 | 7.0 | 9.0 | 0.00 | 0.00 | 0.00 | 37 | 1011.6 |
| 20260504221218 | 76 | 164 | 7.0 | 9.0 | 0.00 | 0.00 | 0.00 | 37 | 1011.7 |
| 20260504220714 | 77 | 223 | 7.0 | 9.0 | 0.00 | 0.00 | 0.00 | 37 | 1011.7 |
| 20260504220212 | 76 | 188 | 5.0 | 7.0 | 0.00 | 0.00 | 0.00 | 37 | 1011.9 |
| 20260504215708 | 76 | 192 | 6.0 | 11.0 | 0.00 | 0.00 | 0.00 | 36 | 1011.7 |
| 20260504215205 | 77 | 216 | 8.0 | 16.0 | 0.00 | 0.00 | 0.00 | 37 | 1011.6 |
| 20260504214701 | 77 | 188 | 13.0 | 18.0 | 0.00 | 0.00 | 0.00 | 37 | 1011.5 |
| 20260504214158 | 77 | 193 | 11.0 | 14.0 | 0.00 | 0.00 | 0.00 | 36 | 1011.7 |
| 20260504213654 | 77 | 238 | 6.0 | 11.0 | 0.00 | 0.00 | 0.00 | 36 | 1011.6 |
| 20260504213151 | 76 | 139 | 4.0 | 7.0 | 0.00 | 0.00 | 0.00 | 36 | 1011.7 |
| 20260504212647 | 76 | 215 | 9.0 | 11.0 | 0.00 | 0.00 | 0.00 | 36 | 1011.8 |
| 20260504212144 | 77 | 245 | 7.0 | 8.0 | 0.00 | 0.00 | 0.00 | 36 | 1011.6 |
| 20260504211642 | 77 | 268 | 1.0 | 2.0 | 0.00 | 0.00 | 0.00 | 35 | 1011.6 |
| 20260504211138 | 77 | 196 | 7.0 | 8.0 | 0.00 | 0.00 | 0.00 | 35 | 1011.6 |
| 20260504210636 | 77 | 160 | 5.0 | 8.0 | 0.00 | 0.00 | 0.00 | 34 | 1011.7 |
| 20260504210132 | 78 | 220 | 11.0 | 13.0 | 0.00 | 0.00 | 0.00 | 34 | 1011.5 |
| 20260504205630 | 77 | 193 | 6.0 | 9.0 | 0.00 | 0.00 | 0.00 | 34 | 1011.9 |
| 20260504205127 | 77 | 100 | 6.0 | 7.0 | 0.00 | 0.00 | 0.00 | 34 | 1011.8 |
| 20260504204625 | 77 | 205 | 7.0 | 10.0 | 0.00 | 0.00 | 0.00 | 34 | 1011.9 |
| 20260504204124 | 78 | 191 | 9.0 | 11.0 | 0.00 | 0.00 | 0.00 | 34 | 1011.8 |
| 20260504203622 | 77 | 141 | 8.0 | 11.0 | 0.00 | 0.00 | 0.00 | 34 | 1011.7 |
| 20260504203119 | 77 | 184 | 9.0 | 15.0 | 0.00 | 0.00 | 0.00 | 34 | 1012.0 |
| 20260504202614 | 78 | 219 | 7.0 | 10.0 | 0.00 | 0.00 | 0.00 | 34 | 1011.8 |
| 20260504202111 | 78 | 160 | 4.0 | 6.0 | 0.00 | 0.00 | 0.00 | 34 | 1011.7 |
| 20260504201608 | 77 | 223 | 3.0 | 3.0 | 0.00 | 0.00 | 0.00 | 34 | 1012.1 |
| 20260504201106 | 79 | 255 | 5.0 | 8.0 | 0.00 | 0.00 | 0.00 | 33 | 1012.1 |
| 20260504200603 | 79 | 199 | 4.0 | 7.0 | 0.00 | 0.00 | 0.00 | 32 | 1012.1 |
| 20260504200059 | 78 | 215 | 5.0 | 8.0 | 0.00 | 0.00 | 0.00 | 33 | 1012.3 |
| 20260504195555 | 78 | 193 | 9.0 | 13.0 | 0.00 | 0.00 | 0.00 | 34 | 1012.2 |
| 20260504195052 | 78 | 214 | 3.0 | 3.0 | 0.00 | 0.00 | 0.00 | 34 | 1012.2 |
| 20260504194548 | 78 | 305 | 5.0 | 6.0 | 0.00 | 0.00 | 0.00 | 34 | 1012.2 |
| 20260504194044 | 77 | 237 | 5.0 | 8.0 | 0.00 | 0.00 | 0.00 | 35 | 1012.3 |
| 20260504193541 | 76 | 211 | 6.0 | 8.0 | 0.00 | 0.00 | 0.00 | 35 | 1012.6 |
| 20260504193039 | 76 | 261 | 5.0 | 7.0 | 0.00 | 0.00 | 0.00 | 35 | 1012.5 |
| 20260504192537 | 76 | 205 | 4.0 | 6.0 | 0.00 | 0.00 | 0.00 | 35 | 1012.6 |
| 20260504192035 | 77 | 242 | 5.0 | 6.0 | 0.00 | 0.00 | 0.00 | 35 | 1012.8 |
| 20260504191533 | 76 | 190 | 6.0 | 8.0 | 0.00 | 0.00 | 0.00 | 35 | 1013.1 |
| 20260504191029 | 75 | 209 | 11.0 | 16.0 | 0.00 | 0.00 | 0.00 | 36 | 1013.2 |
| 20260504190525 | 76 | 184 | 3.0 | 6.0 | 0.00 | 0.00 | 0.00 | 34 | 1013.0 |
| 20260504190021 | 76 | 182 | 5.0 | 7.0 | 0.00 | 0.00 | 0.00 | 35 | 1013.3 |
| 20260504185518 | 75 | 210 | 7.0 | 9.0 | 0.00 | 0.00 | 0.00 | 35 | 1013.6 |
| 20260504185015 | 75 | 225 | 10.0 | 11.0 | 0.00 | 0.00 | 0.00 | 36 | 1013.4 |
| 20260504184510 | 75 | 231 | 6.0 | 9.0 | 0.00 | 0.00 | 0.00 | 35 | 1013.4 |
| 20260504184006 | 75 | 228 | 6.0 | 8.0 | 0.00 | 0.00 | 0.00 | 35 | 1013.7 |
| 20260504183503 | 75 | 181 | 3.0 | 6.0 | 0.00 | 0.00 | 0.00 | 36 | 1013.7 |
| 20260504183001 | 75 | 43 | 2.0 | 3.0 | 0.00 | 0.00 | 0.00 | 36 | 1013.7 |
| 20260504182458 | 75 | 257 | 3.0 | 5.0 | 0.00 | 0.00 | 0.00 | 37 | 1014.0 |
| 20260504181955 | 75 | 239 | 5.0 | 6.0 | 0.00 | 0.00 | 0.00 | 37 | 1013.9 |
| 20260504181452 | 74 | 155 | 5.0 | 7.0 | 0.00 | 0.00 | 0.00 | 37 | 1013.7 |
| 20260504180950 | 74 | 185 | 9.0 | 13.0 | 0.00 | 0.00 | 0.00 | 37 | 1013.9 |
| 20260504180449 | 73 | 209 | 5.0 | 6.0 | 0.00 | 0.00 | 0.00 | 37 | 1013.9 |
| 20260504175947 | 74 | 263 | 5.0 | 6.0 | 0.00 | 0.00 | 0.00 | 37 | 1014.2 |
| 20260504175444 | 73 | 120 | 2.0 | 2.0 | 0.00 | 0.00 | 0.00 | 38 | 1014.2 |
| 20260504174941 | 73 | 231 | 6.0 | 7.0 | 0.00 | 0.00 | 0.00 | 38 | 1014.4 |
| 20260504174439 | 73 | 246 | 8.0 | 10.0 | 0.00 | 0.00 | 0.00 | 38 | 1014.3 |
| 20260504173936 | 73 | 246 | 8.0 | 10.0 | 0.00 | 0.00 | 0.00 | 37 | 1014.4 |
| 20260504173432 | 73 | 169 | 3.0 | 6.0 | 0.00 | 0.00 | 0.00 | 38 | 1014.5 |
| 20260504172930 | 73 | 183 | 4.0 | 5.0 | 0.00 | 0.00 | 0.00 | 38 | 1014.5 |
| 20260504172426 | 73 | 205 | 4.0 | 5.0 | 0.00 | 0.00 | 0.00 | 38 | 1014.6 |
| 20260504171922 | 72 | 264 | 1.0 | 2.0 | 0.00 | 0.00 | 0.00 | 38 | 1014.8 |
| 20260504171420 | 72 | 260 | 4.0 | 5.0 | 0.00 | 0.00 | 0.00 | 39 | 1014.8 |
| 20260504170916 | 71 | 176 | 4.0 | 6.0 | 0.00 | 0.00 | 0.00 | 38 | 1014.9 |
| 20260504170413 | 71 | 198 | 3.0 | 5.0 | 0.00 | 0.00 | 0.00 | 39 | 1015.0 |
| 20260504160332 | 70 | 185 | 5.0 | 7.0 | 0.00 | 0.00 | 0.00 | 38 | 1015.4 |
| 20260504150756 | 67 | 248 | 4.0 | 5.0 | 0.00 | 0.00 | 0.00 | 44 | 1015.9 |
| 20260504150253 | 68 | 279 | 1.0 | 2.0 | 0.00 | 0.00 | 0.00 | 43 | 1016.1 |
| 20260504141223 | 64 | 271 | 3.0 | 5.0 | 0.00 | 0.00 | 0.00 | 49 | 1016.4 |
| 20260504140720 | 63 | 217 | 1.0 | 1.0 | 0.00 | 0.00 | 0.00 | 50 | 1016.4 |
| 20260504140215 | 62 | 266 | 0.0 | 1.0 | 0.00 | 0.00 | 0.00 | 51 | 1016.5 |
| 20260504130643 | 58 | 232 | 2.0 | 2.0 | 0.00 | 0.00 | 0.00 | 57 | 1016.9 |
| 20260504130140 | 57 | 182 | 7.0 | 7.0 | 0.00 | 0.00 | 0.00 | 58 | 1017.0 |
| 20260504120104 | 54 | 158 | 4.0 | 6.0 | 0.00 | 0.00 | 0.00 | 60 | 1017.3 |
| 20260504110531 | 53 | 204 | 3.0 | 5.0 | 0.00 | 0.00 | 0.00 | 61 | 1017.4 |
| 20260504100453 | 53 | 175 | 3.0 | 5.0 | 0.00 | 0.00 | 0.00 | 60 | 1017.1 |
| 20260504081847 | 54 | 215 | 1.0 | 2.0 | 0.00 | 0.00 | 0.00 | 56 | 1017.7 |
| 20260504081343 | 54 | 219 | 3.0 | 3.0 | 0.00 | 0.00 | 0.00 | 56 | 1017.7 |
| 20260504080838 | 54 | 243 | 0.0 | 1.0 | 0.00 | 0.00 | 0.00 | 56 | 1017.5 |
| 20260504080337 | 54 | 222 | 0.0 | 1.0 | 0.00 | 0.00 | 0.00 | 56 | 1017.6 |
| 20260504070304 | 54 | 198 | 0.0 | 1.0 | 0.00 | 0.00 | 0.00 | 57 | 1017.4 |
| 20260504060224 | 54 | 167 | 2.0 | 2.0 | 0.00 | 0.00 | 0.00 | 56 | 1018.2 |
| 20260504050652 | 54 | 205 | 1.0 | 2.0 | 0.00 | 0.00 | 0.00 | 56 | 1018.1 |
| 20260504050149 | 54 | 192 | 1.0 | 2.0 | 0.00 | 0.00 | 0.00 | 56 | 1018.0 |
| 20260504045646 | 54 | 206 | 1.0 | 2.0 | 0.00 | 0.00 | 0.00 | 55 | 1017.7 |
| 20260504045146 | 54 | 192 | 1.0 | 2.0 | 0.00 | 0.00 | 0.00 | 55 | 1017.8 |
| 20260504044644 | 54 | 185 | 1.0 | 2.0 | 0.00 | 0.00 | 0.00 | 55 | 1017.7 |
| 20260504044141 | 54 | 198 | 2.0 | 2.0 | 0.00 | 0.00 | 0.00 | 54 | 1017.8 |
| 20260504043638 | 54 | 221 | 2.0 | 3.0 | 0.00 | 0.00 | 0.00 | 54 | 1018.0 |
| 20260504043135 | 54 | 213 | 2.0 | 2.0 | 0.00 | 0.00 | 0.00 | 54 | 1017.8 |
| 20260504042632 | 54 | 219 | 3.0 | 3.0 | 0.00 | 0.00 | 0.00 | 54 | 1017.9 |
| 20260504042129 | 53 | 200 | 3.0 | 5.0 | 0.00 | 0.00 | 0.00 | 53 | 1017.7 |
| 20260504041625 | 53 | 195 | 1.0 | 1.0 | 0.00 | 0.00 | 0.00 | 53 | 1017.7 |
| 20260504041121 | 54 | 170 | 1.0 | 3.0 | 0.00 | 0.00 | 0.00 | 53 | 1017.8 |
| 20260504040618 | 54 | 167 | 3.0 | 3.0 | 0.00 | 0.00 | 0.00 | 52 | 1018.0 |
| 20260504040115 | 54 | 190 | 1.0 | 2.0 | 0.00 | 0.00 | 0.00 | 52 | 1018.0 |
| 20260504035612 | 54 | 225 | 2.0 | 2.0 | 0.00 | 0.00 | 0.00 | 52 | 1017.9 |
| 20260504035108 | 54 | 210 | 1.0 | 1.0 | 0.00 | 0.00 | 0.00 | 52 | 1017.8 |
| 20260504034606 | 54 | 229 | 2.0 | 2.0 | 0.00 | 0.00 | 0.00 | 51 | 1017.7 |
| 20260504034103 | 54 | 259 | 0.0 | 0.0 | 0.00 | 0.00 | 0.00 | 51 | 1017.8 |
| 20260504033601 | 54 | 266 | 0.0 | 0.0 | 0.00 | 0.00 | 0.00 | 50 | 1017.7 |
| 20260504033058 | 54 | 221 | 0.0 | 0.0 | 0.00 | 0.00 | 0.00 | 50 | 1017.6 |
| 20260504032555 | 55 | 204 | 0.0 | 1.0 | 0.00 | 0.00 | 0.00 | 49 | 1017.6 |
| 20260504032052 | 55 | 187 | 1.0 | 1.0 | 0.00 | 0.00 | 0.00 | 48 | 1017.6 |
| 20260504031549 | 55 | 193 | 1.0 | 1.0 | 0.00 | 0.00 | 0.00 | 48 | 1017.5 |
| 20260504031045 | 55 | 196 | 0.0 | 0.0 | 0.00 | 0.00 | 0.00 | 47 | 1017.6 |
| 20260504030542 | 55 | 214 | 2.0 | 3.0 | 0.00 | 0.00 | 0.00 | 46 | 1017.6 |
| 20260504030038 | 56 | 188 | 2.0 | 2.0 | 0.00 | 0.00 | 0.00 | 46 | 1017.5 |
| 20260504025535 | 56 | 207 | 3.0 | 3.0 | 0.00 | 0.00 | 0.00 | 46 | 1017.3 |
| 20260504025032 | 56 | 182 | 2.0 | 2.0 | 0.00 | 0.00 | 0.00 | 46 | 1017.4 |
| 20260504024529 | 56 | 196 | 2.0 | 2.0 | 0.00 | 0.00 | 0.00 | 45 | 1017.5 |
| 20260504024026 | 56 | 221 | 2.0 | 2.0 | 0.00 | 0.00 | 0.00 | 45 | 1017.5 |
| 20260504023523 | 56 | 192 | 3.0 | 3.0 | 0.00 | 0.00 | 0.00 | 45 | 1017.1 |
| 20260504023018 | 57 | 197 | 1.0 | 1.0 | 0.00 | 0.00 | 0.00 | 45 | 1017.4 |
| 20260504022514 | 57 | 182 | 3.0 | 3.0 | 0.00 | 0.00 | 0.00 | 45 | 1017.4 |
| 20260504022011 | 57 | 191 | 2.0 | 2.0 | 0.00 | 0.00 | 0.00 | 44 | 1017.2 |
| 20260504021509 | 57 | 199 | 0.0 | 0.0 | 0.00 | 0.00 | 0.00 | 44 | 1017.2 |
| 20260504021005 | 57 | 217 | 0.0 | 0.0 | 0.00 | 0.00 | 0.00 | 44 | 1017.2 |
| 20260504020502 | 57 | 226 | 0.0 | 0.0 | 0.00 | 0.00 | 0.00 | 43 | 1017.0 |
| 20260504015959 | 58 | 208 | 1.0 | 1.0 | 0.00 | 0.00 | 0.00 | 42 | 1017.2 |
| 20260504015455 | 58 | 212 | 2.0 | 2.0 | 0.00 | 0.00 | 0.00 | 42 | 1017.0 |
| 20260504014951 | 58 | 171 | 1.0 | 1.0 | 0.00 | 0.00 | 0.00 | 42 | 1017.1 |
| 20260504014447 | 57 | 192 | 3.0 | 3.0 | 0.00 | 0.00 | 0.00 | 42 | 1017.0 |
| 20260504013944 | 58 | 190 | 0.0 | 0.0 | 0.00 | 0.00 | 0.00 | 43 | 1017.1 |
| 20260504013443 | 59 | 164 | 1.0 | 1.0 | 0.00 | 0.00 | 0.00 | 42 | 1017.1 |
| 20260504012938 | 59 | 164 | 2.0 | 2.0 | 0.00 | 0.00 | 0.00 | 41 | 1017.0 |
| 20260504012437 | 59 | 215 | 2.0 | 2.0 | 0.00 | 0.00 | 0.00 | 41 | 1016.9 |
| 20260504011934 | 59 | 179 | 1.0 | 2.0 | 0.00 | 0.00 | 0.00 | 41 | 1017.0 |
| 20260504011431 | 59 | 206 | 1.0 | 2.0 | 0.00 | 0.00 | 0.00 | 40 | 1016.8 |
| 20260504010926 | 59 | 190 | 2.0 | 2.0 | 0.00 | 0.00 | 0.00 | 40 | 1016.7 |
| 20260504010422 | 59 | 228 | 0.0 | 1.0 | 0.00 | 0.00 | 0.00 | 39 | 1016.7 |
| 20260504005919 | 60 | 212 | 1.0 | 2.0 | 0.00 | 0.00 | 0.00 | 39 | 1016.9 |
| 20260504005415 | 60 | 243 | 0.0 | 0.0 | 0.00 | 0.00 | 0.00 | 38 | 1016.6 |
| 20260504004913 | 60 | 238 | 0.0 | 0.0 | 0.00 | 0.00 | 0.00 | 37 | 1016.5 |
| 20260504004411 | 60 | 167 | 1.0 | 2.0 | 0.00 | 0.00 | 0.00 | 36 | 1016.6 |